Tracking 35237 objects as of 5-Sep-2026
HD Live streaming from Space Station
objects crossing your sky now

OPS 9381 (GGTS)

Track OPS 9381 (GGTS) now!
OPS 9381 (GGTS) is classified as:


NORAD ID: 2207
Int'l Code: 1966-053A
Launch date: June 16, 1966
Source: United States (US)
Launch site: AIR FORCE EASTERN TEST RANGE (AFETR)
Your satellite tracking list
Your tracking list is empty




NASA's NSSDC Master Catalog

Two Line Element Set (TLE):
1 02207U 66053A   26248.61634289 -.00000129  00000-0  00000-0 0  9995
2 02207   8.7923  42.6449 0027708 236.0179 178.7848  1.08011357236834
Source of the keplerian elements: AFSPC